Home   Weather   Iráklion   Past weeks

Flag for Greece Past Weather in Iráklion, Crete, Greece — Yesterday and Last 2 Weeks

Now
48 °F

Passing clouds.


Feels Like: 46 °F
Forecast: 41 / 62 °F
Wind: 5 mph from South

Location: Heraklion Airport

Current Time: Dec 9, 2016 at 9:22:14 pm

Latest Report: Dec 9, 2016 at 8:50 pm


Visibility: N/A

Pressure: 30.33 "Hg

Humidity: 87%

Dew Point: 45 °F

Location of IráklionLocation

Past Weather in Iráklion — Graph

°F

Iráklion Temperature Yesterday

Maximum temperature yesterday: 59 °F (at 12:50 am)
Minimum temperature yesterday: 54 °F (at 7:50 am)
Average temperature yesterday: 55 °F

High & Low Weather Summary for the Past Weeks

 TemperatureHumidityPressure
High73 °F (Nov 28, 1:50 pm)100% (Dec 5, 4:50 pm)30.54 "Hg (Dec 5, 4:50 pm)
Low48 °F (Nov 30, 8:50 pm)0% (Nov 25, 2:20 am)29.71 "Hg (Nov 29, 3:50 pm)
Average59 °F72%30.12 "Hg
* Reported Nov 24 7:20 pm — Dec 9 7:50 pm, Iráklion, Weather by CustomWeather, © 2016

Note: Actual official high and low records may vary slightly from our data, if they occured in-between our weather recording intervals... More about our weather records

Advertising

Iráklion Weather History for the Previous 24 Hours

Scroll right to see more
 ConditionsComfort  
Time TempWeatherWind HumidityBarometerVisibility
7:50 pm
Fri, Dec 9
48 °FPassing clouds.7 mph87%30.33 "HgN/A
7:20 pm52 °FPassing clouds.6 mph77%30.33 "HgN/A
6:50 pm54 °FPassing clouds.No wind77%30.36 "HgN/A
6:20 pm55 °FPassing clouds.No wind72%30.36 "HgN/A
5:50 pm55 °FPassing clouds.No wind72%30.36 "HgN/A
5:20 pm57 °FPassing clouds.No wind67%30.36 "HgN/A
4:50 pm57 °FPassing clouds.No wind67%30.36 "HgN/A
4:20 pm57 °FPassing clouds.5 mph67%30.36 "HgN/A
3:50 pm57 °FPassing clouds.5 mph67%30.36 "HgN/A
3:20 pm57 °FPassing clouds.5 mph67%30.36 "HgN/A
2:50 pm57 °FPassing clouds.5 mph67%30.36 "HgN/A
2:20 pm57 °FPassing clouds.6 mph67%30.36 "HgN/A
1:50 pm57 °FPassing clouds.6 mph67%30.36 "HgN/A
1:20 pm57 °FPassing clouds.5 mph63%30.39 "HgN/A
12:50 pm57 °FPassing clouds.5 mph63%30.39 "HgN/A
12:20 pm57 °FScattered clouds.6 mph63%30.42 "HgN/A
11:50 am57 °FScattered clouds.6 mph63%30.42 "HgN/A
11:20 am59 °FPartly sunny.6 mph51%30.42 "HgN/A
10:50 am55 °FPartly sunny.3 mph72%30.42 "HgN/A
10:20 am54 °FPartly sunny.6 mph67%30.42 "HgN/A
9:50 am54 °FPartly sunny.6 mph67%30.42 "HgN/A
9:20 am52 °FPartly sunny.3 mph72%30.42 "HgN/A
8:50 am52 °FPartly sunny.5 mph72%30.42 "HgN/A
8:20 am54 °FPartly sunny.7 mph63%30.42 "HgN/A
7:50 am54 °FPartly sunny.7 mph63%30.42 "HgN/A
7:20 am54 °FPartly sunny.10 mph67%30.42 "HgN/A
6:50 am54 °FPassing clouds.6 mph72%30.42 "HgN/A
6:20 am52 °FPassing clouds.5 mph72%30.42 "HgN/A
5:50 am52 °FPassing clouds.7 mph72%30.42 "HgN/A
5:20 am52 °FPassing clouds.8 mph72%30.45 "HgN/A
4:50 am52 °FPassing clouds.9 mph72%30.45 "HgN/A
4:20 am52 °FPassing clouds.7 mph72%30.45 "HgN/A
3:50 am52 °FPassing clouds.8 mph72%30.45 "HgN/A
3:20 am52 °FPassing clouds.8 mph72%30.45 "HgN/A
2:50 am52 °FPassing clouds.8 mph72%30.45 "HgN/A
1:50 am52 °FPassing clouds.8 mph72%30.45 "HgN/A
1:20 am54 °FPassing clouds.7 mph67%30.48 "HgN/A
12:50 am54 °FPassing clouds.8 mph67%30.48 "HgN/A
12:20 am54 °FPassing clouds.7 mph67%30.51 "HgN/A
11:50 pm
Thu, Dec 8
54 °FPassing clouds.9 mph67%30.51 "HgN/A
11:20 pm54 °FPassing clouds.9 mph67%30.51 "HgN/A
10:50 pm54 °FPassing clouds.10 mph67%30.51 "HgN/A
10:20 pm54 °FPassing clouds.12 mph67%30.48 "HgN/A
9:50 pm54 °FPassing clouds.9 mph67%30.48 "HgN/A
9:20 pm54 °FPassing clouds.12 mph67%30.48 "HgN/A
Weather by CustomWeather, © 2016

See weather overviewHow to use our weather pages